TimeMST,TemperatureF,Dew PointF,Humidity,Sea Level PressureIn,VisibilityMPH,Wind Direction,Wind SpeedMPH,Gust SpeedMPH,PrecipitationIn,Events,Conditions,WindDirDegrees,DateUTC
12:53 AM,43.0,19.0,38,29.78,10.0,WNW,5.8,-,N/A,,Clear,290,2012-11-22 07:53:00
1:53 AM,53.1,21.9,30,29.76,10.0,West,20.7,29.9,N/A,,Clear,280,2012-11-22 08:53:00
2:53 AM,46.9,21.9,37,29.79,10.0,WSW,15.0,-,N/A,,Clear,240,2012-11-22 09:53:00
3:53 AM,45.0,21.9,40,29.81,10.0,WSW,13.8,-,N/A,,Partly Cloudy,240,2012-11-22 10:53:00
4:34 AM,44.6,30.2,57,29.93,10.0,North,23.0,28.8,N/A,,Mostly Cloudy,360,2012-11-22 11:34:00
4:41 AM,44.6,30.2,57,29.93,10.0,North,23.0,28.8,N/A,,Mostly Cloudy,360,2012-11-22 11:41:00
4:53 AM,44.1,30.9,60,29.90,10.0,North,16.1,27.6,N/A,,Overcast,360,2012-11-22 11:53:00
5:53 AM,37.9,30.0,73,30.01,10.0,NNW,24.2,29.9,N/A,,Scattered Clouds,330,2012-11-22 12:53:00
6:53 AM,36.0,27.0,70,30.06,10.0,NNW,18.4,26.5,N/A,,Partly Cloudy,330,2012-11-22 13:53:00
7:53 AM,35.1,25.0,67,30.10,10.0,NNW,15.0,24.2,N/A,,Clear,330,2012-11-22 14:53:00
8:53 AM,37.9,23.0,55,30.16,10.0,NW,11.5,21.9,N/A,,Overcast,310,2012-11-22 15:53:00
9:53 AM,42.1,21.9,45,30.18,10.0,NNW,19.6,26.5,N/A,,Clear,330,2012-11-22 16:53:00
10:53 AM,46.0,17.1,31,30.17,10.0,NNW,15.0,21.9,N/A,,Partly Cloudy,340,2012-11-22 17:53:00
11:53 AM,48.0,14.0,26,30.14,10.0,NW,21.9,29.9,N/A,,Partly Cloudy,320,2012-11-22 18:53:00
12:53 PM,48.0,8.1,20,30.17,10.0,NNW,25.3,34.5,N/A,,Clear,330,2012-11-22 19:53:00
1:53 PM,48.0,7.0,19,30.15,10.0,NW,18.4,35.7,N/A,,Clear,320,2012-11-22 20:53:00
2:53 PM,46.0,8.1,21,30.19,10.0,NNW,25.3,38.0,N/A,,Clear,330,2012-11-22 21:53:00
3:53 PM,45.0,8.1,22,30.23,10.0,NNW,21.9,28.8,N/A,,Clear,330,2012-11-22 22:53:00
4:53 PM,39.9,9.0,28,30.27,10.0,NW,17.3,24.2,N/A,,Clear,320,2012-11-22 23:53:00
5:53 PM,36.0,6.1,29,30.35,10.0,NW,6.9,-,N/A,,Clear,320,2012-11-23 00:53:00
6:53 PM,34.0,8.1,34,30.41,10.0,North,3.5,-,N/A,,Clear,350,2012-11-23 01:53:00
7:53 PM,30.0,12.0,47,30.46,10.0,NNW,9.2,-,N/A,,Clear,340,2012-11-23 02:53:00
8:53 PM,28.9,12.0,49,30.48,10.0,NW,16.1,-,N/A,,Clear,320,2012-11-23 03:53:00
9:53 PM,28.9,12.0,49,30.49,10.0,NNW,13.8,-,N/A,,Clear,340,2012-11-23 04:53:00
10:53 PM,30.0,12.9,49,30.50,10.0,NW,8.1,-,N/A,,Clear,310,2012-11-23 05:53:00
11:53 PM,26.1,12.9,58,30.53,10.0,SSW,3.5,-,N/A,,Clear,200,2012-11-23 06:53:00